CXA102 ZBAD-ZYCC

Flight info

Callsign CXA102
Flight time N/A
Altitude 39100
Route DOTRA6K DOTRA B334 TGO G341 BUTET BUTET9A
Aircraft B77W/H-SDE1E2E3FGHIJ2J3J4J5M1RWXY/LB1D1

Departure

Time N/A
Airport Beijing Daxing International Airport (ZBAD)

Arrival

Time 2026-04-28 06:56
Airport Changchun Longjia International Airport (ZYCC)
Time Latitude Longitude Altitude Speed Heading
2026-04-28 06:09 41.67687 120.06139 39229 ft 519 kts 55°
2026-04-28 06:09 41.69526 120.10297 39232 ft 519 kts 55°
2026-04-28 06:09 41.72152 120.16242 39230 ft 519 kts 55°
2026-04-28 06:10 41.76858 120.26932 39215 ft 519 kts 56°
2026-04-28 06:10 41.80510 120.35252 39229 ft 519 kts 56°
2026-04-28 06:11 41.84162 120.43596 39215 ft 519 kts 56°
2026-04-28 06:11 41.87809 120.51950 39217 ft 519 kts 56°
2026-04-28 06:12 41.91448 120.60312 39225 ft 519 kts 56°
2026-04-28 06:12 41.95075 120.68667 39218 ft 518 kts 56°
2026-04-28 06:13 41.98698 120.77040 39216 ft 518 kts 56°
2026-04-28 06:13 42.02287 120.85354 39208 ft 517 kts 56°
2026-04-28 06:14 42.05894 120.93733 39211 ft 518 kts 56°
2026-04-28 06:14 42.09494 121.02122 39206 ft 518 kts 56°
2026-04-28 06:15 42.13088 121.10523 39206 ft 518 kts 56°
2026-04-28 06:15 42.16676 121.18930 39211 ft 517 kts 56°
2026-04-28 06:16 42.20254 121.27338 39205 ft 517 kts 56°
2026-04-28 06:16 42.23823 121.35749 39203 ft 516 kts 56°
2026-04-28 06:17 42.27384 121.44164 39201 ft 516 kts 56°
2026-04-28 06:18 42.32694 121.56760 39193 ft 517 kts 57°
2026-04-28 06:18 42.36212 121.65133 39214 ft 516 kts 57°
2026-04-28 06:19 42.39502 121.72988 39192 ft 516 kts 57°
2026-04-28 06:19 42.43037 121.81449 39202 ft 517 kts 57°
2026-04-28 06:20 42.46568 121.89925 39203 ft 517 kts 57°
2026-04-28 06:20 42.50092 121.98409 39195 ft 517 kts 57°
2026-04-28 06:21 42.53612 122.06907 39200 ft 517 kts 57°
2026-04-28 06:21 42.57122 122.15408 39202 ft 516 kts 57°
2026-04-28 06:22 42.60624 122.23913 39186 ft 516 kts 57°
2026-04-28 06:22 42.64119 122.32426 39192 ft 515 kts 57°
2026-04-28 06:23 42.67601 122.40932 39187 ft 515 kts 57°
2026-04-28 06:23 42.71076 122.49447 39186 ft 515 kts 57°
2026-04-28 06:24 42.74545 122.57970 39185 ft 515 kts 58°
2026-04-28 06:24 42.78009 122.66507 39191 ft 515 kts 58°
2026-04-28 06:25 42.81462 122.75042 39173 ft 514 kts 58°
2026-04-28 06:25 42.84905 122.83577 39181 ft 513 kts 58°
2026-04-28 06:26 42.88334 122.92104 39179 ft 513 kts 58°
2026-04-28 06:26 42.91757 123.00639 39183 ft 512 kts 58°
2026-04-28 06:27 42.95171 123.09178 39173 ft 512 kts 58°
2026-04-28 06:27 42.98576 123.17721 39177 ft 512 kts 58°
2026-04-28 06:28 43.01947 123.26203 39176 ft 511 kts 58°
2026-04-28 06:28 43.05334 123.34750 39171 ft 511 kts 58°
2026-04-28 06:29 43.08712 123.43300 39176 ft 510 kts 58°
2026-04-28 06:29 43.12074 123.51836 39171 ft 510 kts 58°
2026-04-28 06:30 43.15430 123.60382 39167 ft 509 kts 58°
2026-04-28 06:30 43.18774 123.68921 39181 ft 508 kts 58°
2026-04-28 06:31 43.22109 123.77465 39160 ft 508 kts 58°
2026-04-28 06:31 43.25437 123.86015 39166 ft 508 kts 59°
2026-04-28 06:32 43.28764 123.94587 39168 ft 508 kts 59°
2026-04-28 06:32 43.32069 124.03132 39168 ft 508 kts 59°
2026-04-28 06:33 43.35378 124.11710 39170 ft 508 kts 59°
2026-04-28 06:33 43.38678 124.20291 39164 ft 507 kts 59°
2026-04-28 06:34 43.41925 124.28771 38792 ft 494 kts 59°
2026-04-28 06:34 43.42983 124.31538 38348 ft 494 kts 59°
2026-04-28 06:34 43.44584 124.35725 37500 ft 496 kts 59°
2026-04-28 06:34 43.46192 124.39934 36665 ft 498 kts 59°
2026-04-28 06:35 43.48350 124.45592 35665 ft 498 kts 59°
2026-04-28 06:35 43.49414 124.48390 35207 ft 498 kts 59°
2026-04-28 06:35 43.51532 124.53969 34304 ft 495 kts 59°
2026-04-28 06:35 43.53124 124.58169 33525 ft 493 kts 59°
2026-04-28 06:36 43.54706 124.62350 32713 ft 491 kts 59°
2026-04-28 06:36 43.55763 124.65147 32121 ft 490 kts 60°
2026-04-28 06:36 43.57339 124.69320 31276 ft 488 kts 60°
2026-04-28 06:36 43.58903 124.73467 30397 ft 487 kts 60°
2026-04-28 06:37 43.60955 124.78918 29443 ft 479 kts 60°
2026-04-28 06:37 43.62476 124.82969 28764 ft 471 kts 60°
2026-04-28 06:37 43.63488 124.85671 28324 ft 467 kts 60°
2026-04-28 06:37 43.64971 124.89629 27628 ft 462 kts 60°
2026-04-28 06:38 43.66443 124.93559 26911 ft 458 kts 60°
2026-04-28 06:38 43.67896 124.97446 26245 ft 454 kts 60°
2026-04-28 06:38 43.69334 125.01298 25616 ft 449 kts 60°
2026-04-28 06:38 43.70758 125.05119 24993 ft 445 kts 60°
2026-04-28 06:39 43.72168 125.08904 24380 ft 441 kts 60°
2026-04-28 06:39 43.73563 125.12657 23806 ft 437 kts 60°
2026-04-28 06:39 43.74943 125.16374 23153 ft 433 kts 60°
2026-04-28 06:39 43.76292 125.20012 22515 ft 428 kts 60°
2026-04-28 06:40 43.77662 125.23711 21877 ft 424 kts 60°
2026-04-28 06:40 43.78979 125.27272 21308 ft 420 kts 60°
2026-04-28 06:40 43.80301 125.30851 20710 ft 416 kts 60°
2026-04-28 06:40 43.81613 125.34407 20134 ft 412 kts 60°
2026-04-28 06:41 43.82908 125.37921 19568 ft 408 kts 60°
2026-04-28 06:41 43.84190 125.41404 19011 ft 405 kts 60°
2026-04-28 06:41 43.85459 125.44858 18472 ft 401 kts 60°
2026-04-28 06:41 43.86725 125.48307 17878 ft 398 kts 60°
2026-04-28 06:42 43.87973 125.51712 17260 ft 395 kts 60°
2026-04-28 06:42 43.89211 125.55093 16649 ft 392 kts 61°
2026-04-28 06:42 43.90435 125.58440 16036 ft 390 kts 61°
2026-04-28 06:42 43.91655 125.61780 15454 ft 387 kts 61°
2026-04-28 06:43 43.92870 125.65108 14888 ft 385 kts 61°
2026-04-28 06:43 43.94070 125.68403 14314 ft 382 kts 61°
2026-04-28 06:43 43.95260 125.71676 13899 ft 375 kts 61°
2026-04-28 06:43 43.96407 125.74838 13808 ft 360 kts 61°
2026-04-28 06:44 43.97512 125.77884 13714 ft 347 kts 61°
2026-04-28 06:44 43.98577 125.80820 13622 ft 334 kts 60°
2026-04-28 06:44 43.99601 125.83646 13516 ft 322 kts 60°
2026-04-28 06:44 44.00590 125.86379 13458 ft 311 kts 60°
2026-04-28 06:45 44.01544 125.89015 13368 ft 300 kts 60°
2026-04-28 06:45 44.02464 125.91558 13279 ft 289 kts 60°
2026-04-28 06:45 44.03349 125.94013 13188 ft 279 kts 60°
2026-04-28 06:45 44.04202 125.96378 13103 ft 269 kts 60°
2026-04-28 06:46 44.05047 125.98639 12947 ft 257 kts 54°
2026-04-28 06:46 44.06132 126.00560 12643 ft 251 kts 45°
2026-04-28 06:46 44.07293 126.02347 12362 ft 248 kts 45°
2026-04-28 06:46 44.08433 126.04130 12057 ft 246 kts 45°
2026-04-28 06:47 44.09558 126.05926 11759 ft 245 kts 46°
2026-04-28 06:47 44.10670 126.07714 11483 ft 244 kts 46°
2026-04-28 06:47 44.11771 126.09497 11172 ft 243 kts 46°
2026-04-28 06:47 44.12868 126.11281 10874 ft 242 kts 46°
2026-04-28 06:48 44.13977 126.13013 10553 ft 236 kts 37°
2026-04-28 06:48 44.15414 126.13973 10105 ft 231 kts
2026-04-28 06:48 44.16976 126.13665 9759 ft 227 kts 336°
2026-04-28 06:48 44.18294 126.12563 9455 ft 224 kts 322°
2026-04-28 06:49 44.19492 126.11172 9110 ft 224 kts 320°
2026-04-28 06:49 44.20670 126.09755 8820 ft 224 kts 319°
2026-04-28 06:49 44.21669 126.08145 8426 ft 222 kts 295°
2026-04-28 06:49 44.21886 126.06005 7986 ft 229 kts 261°
2026-04-28 06:50 44.21225 126.03994 7645 ft 229 kts 239°
2026-04-28 06:50 44.20295 126.02174 7315 ft 230 kts 236°
2026-04-28 06:50 44.19303 126.00434 6970 ft 228 kts 233°
2026-04-28 06:50 44.18281 125.98741 6451 ft 229 kts 232°
2026-04-28 06:51 44.17244 125.97051 5898 ft 230 kts 232°
2026-04-28 06:51 44.16196 125.95348 5565 ft 230 kts 232°
2026-04-28 06:51 44.15160 125.93671 5357 ft 227 kts 232°
2026-04-28 06:51 44.14133 125.92003 5040 ft 227 kts 232°
2026-04-28 06:52 44.13106 125.90337 4732 ft 227 kts 232°
2026-04-28 06:52 44.12081 125.88674 4403 ft 226 kts 232°
2026-04-28 06:52 44.11097 125.87080 4265 ft 208 kts 232°
2026-04-28 06:52 44.10192 125.85612 4089 ft 193 kts 232°
2026-04-28 06:53 44.09336 125.84222 3801 ft 184 kts 233°
2026-04-28 06:53 44.08510 125.82881 3420 ft 182 kts 233°
2026-04-28 06:53 44.07692 125.81554 3044 ft 179 kts 232°
2026-04-28 06:53 44.06900 125.80274 2936 ft 174 kts 233°
2026-04-28 06:54 44.06105 125.78982 2962 ft 174 kts 233°
2026-04-28 06:54 44.05351 125.77768 2781 ft 162 kts 234°
2026-04-28 06:54 44.04636 125.76583 2294 ft 159 kts 234°
2026-04-28 06:54 44.03936 125.75416 1782 ft 155 kts 233°
2026-04-28 06:55 44.03236 125.74305 1491 ft 151 kts 231°
2026-04-28 06:55 44.02544 125.73218 1276 ft 150 kts 231°
2026-04-28 06:55 44.01857 125.72115 1087 ft 152 kts 231°
2026-04-28 06:55 44.01175 125.70995 929 ft 154 kts 230°
2026-04-28 06:56 44.00467 125.69863 747 ft 155 kts 230°
2026-04-28 06:56 43.99810 125.68798 722 ft 133 kts 229°
2026-04-28 06:56 43.99356 125.68078 726 ft 37 kts 220°
2026-04-28 06:56 43.99216 125.67981 721 ft 0 kts 200°
2026-04-28 06:57 43.99214 125.67980 721 ft 0 kts 200°
2026-04-28 06:58 43.99195 125.67970 723 ft 5 kts 200°
2026-04-28 06:58 43.99160 125.67952 723 ft 6 kts 200°
2026-04-28 06:59 43.99117 125.67948 722 ft 6 kts 165°
2026-04-28 06:59 43.99077 125.67980 723 ft 7 kts 147°
2026-04-28 06:59 43.99037 125.68026 722 ft 7 kts 140°
2026-04-28 06:59 43.99036 125.68027 721 ft 0 kts 140°
2026-04-28 07:01 43.98995 125.68086 722 ft 13 kts 116°
2026-04-28 07:01 43.98995 125.68106 720 ft 5 kts 81°
2026-04-28 07:01 43.98998 125.68127 720 ft 1 kts 76°
2026-04-28 07:02 43.98998 125.68149 721 ft 6 kts 98°
2026-04-28 07:02 43.98977 125.68199 722 ft 6 kts 131°
2026-04-28 07:02 43.98957 125.68227 723 ft 3 kts 137°
2026-04-28 07:02 43.98953 125.68231 722 ft 1 kts 137°
2026-04-28 07:03 43.98946 125.68240 720 ft 2 kts 138°
2026-04-28 07:03 43.98943 125.68244 721 ft 0 kts 138°
2026-04-28 07:03 43.98944 125.68242 720 ft 0 kts 138°
2026-04-28 07:03 43.98944 125.68243 720 ft 0 kts 138°